Voltar ao catálogo

FENGYUN 1C DEB

AtivoSSO
NORAD 36680·DEBRIS·🇨🇳 China

Lançado May 10, 1999 de Taiyuan Satellite Launch Center

Loading…

Próximas Passagens (próximas 24 horas)

TLE

AtualizadoSource: Space-Track

Época: Sep 14, 2026, 17:52 UTC

1 36680U 99025DZA 26257.74472205  .00000464  00000-0  20307-3 0  9990
2 36680  98.5689 245.5836 0188011 171.2281   3.7178 14.19200855682113

Acompanhe FENGYUN 1C DEB em tempo real com AllMySat

Download on the App Store